Home   Weather   Barnstable   Past weeks

Flag for USA Past Weather in Barnstable, Massachusetts, USA — Yesterday and Last 2 Weeks

69 °F


Feels Like: 69 °F
Forecast: 63 / 70 °F
Wind: 12 mph from Southeast

Location: Barnstable Municipal-Boardman Airport

Current Time: Oct 21, 2016 at 12:52:33 PM

Latest Report: Oct 21, 2016 at 11:56 AM

Visibility: 10 mi

Pressure: 29.81 "Hg

Humidity: 84%

Dew Point: 64 °F

Location of BarnstableLocation

Past Weather in Barnstable — Graph


Barnstable Temperature Yesterday

Maximum temperature yesterday: 68 °F (at 11:56 AM)
Minimum temperature yesterday: 50 °F (at 1:56 AM)
Average temperature yesterday: 60 °F

High & Low Weather Summary for the Past Weeks

High74 °F (Oct 17, 12:56 PM)100% (Oct 21, 4:03 AM)30.46 "Hg (Oct 21, 4:03 AM)
Low34 °F (Oct 15, 5:56 AM)47% (Oct 7, 12:56 PM)29.84 "Hg (Oct 10, 1:04 AM)
Average57 °F80%30.13 "Hg
* Reported Oct 6 10:56 AM — Oct 21 10:56 AM, Barnstable, Weather by CustomWeather, © 2016

Note: Actual official high and low records may vary slightly from our data, if they occured in-between our weather recording intervals... More about our weather records


Barnstable Weather History for the Previous 24 Hours

Scroll right to see more
Time TempWeatherWind HumidityBarometerVisibility
10:56 AM
Fri, Oct 21
68 °FMore clouds than sun.8 mph87%29.84 "Hg10 mi
9:56 AM68 °FScattered clouds.9 mph87%29.86 "Hg10 mi
8:56 AM66 °FSunny.7 mph93%29.89 "Hg10 mi
8:03 AM63 °FPartly sunny.5 mph100%29.90 "Hg8 mi
7:00 AM62 °FFog.3 mph100%29.91 "Hg2 mi
5:56 AM61 °FFog.3 mph100%29.93 "Hg1 mi
4:56 AM62 °FFog.3 mph100%29.94 "Hg1 mi
4:03 AM62 °FFog.5 mph100%29.94 "Hg1 mi
2:56 AM62 °FFog.6 mph96%29.97 "Hg1 mi
2:03 AM61 °FFog.7 mph97%30.00 "Hg1 mi
1:56 AM61 °FFog.9 mph97%30.01 "Hg1 mi
12:56 AM61 °FFog.7 mph97%30.02 "Hg2 mi
11:56 PM
Thu, Oct 20
61 °FOvercast.10 mph90%30.03 "Hg10 mi
10:56 PM61 °FOvercast.7 mph90%30.06 "Hg10 mi
9:56 PM61 °FLight rain. Fog.9 mph90%30.07 "Hg5 mi
8:56 PM61 °FOvercast.12 mph83%30.09 "Hg10 mi
7:56 PM60 °FPassing clouds.10 mph83%30.11 "Hg10 mi
6:56 PM60 °FMostly cloudy.8 mph80%30.14 "Hg10 mi
5:56 PM60 °FMostly cloudy.8 mph78%30.15 "Hg10 mi
4:56 PM62 °FSunny.9 mph70%30.16 "Hg10 mi
3:56 PM65 °FSunny.7 mph63%30.16 "Hg10 mi
2:56 PM63 °FPartly sunny.7 mph68%30.17 "Hg10 mi
1:56 PM66 °FPartly sunny.6 mph63%30.17 "Hg10 mi
12:56 PM66 °FSunny.9 mph61%30.19 "Hg10 mi
Weather by CustomWeather, © 2016

See weather overviewHow to use our weather pages